Wind_Speed
9 9 9 8 7 7 9 11 15 18 25 29 24 21 16 27 39 31 33 35 36 36 35 35 35 35 37 39 40 41 43 45 48 50 53 55 57 58 58 58 59 59 58 57
9 7 6 7 8 8 8 9 14 16 23 22 22 23 18 22 34 30 32 36 39 38 37 36 36 36 35 36 37 38 40 42 44 45 47 50 53 55 57 58 59 60 61 60
9 9 8 9 9 10 11 11 13 15 19 20 21 18 20 21 36 34 41 32 26 29 31 32 34 35 35 35 35 36 37 39 42 44 46 47 47 48 50 53 55 57 60 61
11 9 9 10 11 11 13 13 15 17 20 20 18 22 18 24 34 37 23 19 39 35 35 35 37 36 35 32 32 33 34 36 39 43 45 45 45 46 47 48 49 51 53 54
13 11 11 11 12 13 14 14 17 18 20 20 14 12 14 28 34 32 30 45 41 38 36 38 35 32 31 33 34 32 31 32 35 34 35 42 45 43 45 46 47 47 47 49
15 14 13 13 13 13 14 15 16 19 20 18 13 10 18 36 38 34 36 40 44 42 41 43 36 36 36 37 37 37 37 37 40 39 39 38 41 43 44 44 43 44 45 43
17 16 15 13 14 14 14 16 15 12 10 17 20 23 27 36 35 23 38 41 39 41 43 40 38 37 38 39 40 40 41 42 44 43 41 40 39 42 42 42 41 39 38 37
17 20 17 14 15 17 14 15 16 12 14 13 18 25 31 39 42 34 36 39 32 38 38 37 39 39 41 41 42 42 44 43 44 45 44 42 40 36 41 43 39 39 39 38
20 19 22 17 16 17 17 18 18 18 18 20 7 21 31 34 33 28 40 35 44 47 44 41 41 44 44 46 45 45 43 43 44 44 44 42 41 40 33 34 37 36 38 38
24 24 23 19 19 18 18 21 18 22 21 22 13 21 34 36 33 37 37 39 45 46 44 41 39 41 42 43 43 43 44 45 46 46 46 43 43 43 40 36 33 37 39 44
25 22 26 19 21 21 19 22 20 21 22 25 27 15 27 32 35 35 37 32 38 40 38 36 36 38 40 42 42 42 43 45 46 46 46 45 45 45 44 41 39 38 41 43
30 23 24 22 23 19 20 22 24 25 25 30 27 25 24 31 33 29 39 40 34 35 36 36 37 37 39 40 41 43 45 46 47 47 48 46 45 46 46 45 42 42 43 44
29 27 25 23 21 28 21 20 19 27 26 26 29 25 24 23 33 26 35 37 34 34 36 35 33 35 38 41 44 46 48 49 50 50 48 49 48 47 47 46 45 43 42 43
30 29 27 23 24 27 29 30 27 27 28 30 28 28 28 29 34 36 35 36 36 35 33 33 34 37 41 45 49 50 50 51 52 52 54 47 41 40 37 35 34 34 36 37
31 30 30 28 24 29 30 30 30 30 31 31 27 24 29 32 27 39 39 39 35 33 30 32 35 39 43 47 51 51 53 52 57 52 49 43 36 38 34 33 31 30 31 31
28 28 30 30 27 28 31 29 28 28 31 31 25 18 30 35 41 40 40 37 34 29 31 34 37 42 47 50 55 56 56 57 57 50 41 34 34 29 28 27 27 26 26 25
22 23 26 27 29 30 33 26 26 27 19 21 24 19 36 37 37 36 43 37 32 31 32 36 40 45 50 54 58 60 59 64 56 43 34 32 28 28 22 25 21 20 18 18
27 25 25 28 28 32 24 28 29 28 26 26 32 34 34 37 36 35 42 40 37 36 37 38 42 46 51 56 60 60 62 62 45 27 23 22 16 18 17 13 7 6 7 8
25 26 28 30 30 29 23 25 27 27 24 24 28 31 34 35 34 32 40 43 43 41 41 40 44 47 52 57 60 59 65 51 31 20 20 17 10 9 4 5 7 3 7 8
27 28 29 29 30 31 22 30 31 29 29 40 40 31 33 34 36 37 39 42 41 39 39 40 43 47 52 56 57 57 59 40 26 20 14 9 10 7 4 7 9 15 16 10
25 24 26 25 28 27 22 33 30 30 31 37 38 35 34 36 37 41 44 45 44 41 37 40 43 47 50 54 53 57 47 31 20 13 10 9 6 7 5 6 11 17 8 13
24 20 27 26 24 22 28 31 34 32 32 38 35 33 34 38 37 41 43 45 41 38 35 37 40 44 49 49 51 54 40 23 13 9 9 5 6 5 6 1 1 4 6 5
25 26 30 26 25 24 31 35 30 39 34 34 33 33 37 37 39 40 37 40 37 34 33 35 38 42 45 46 49 45 35 14 10 11 12 10 7 3 5 1 1 5 7 6
27 21 25 25 26 30 33 35 44 47 40 41 37 35 36 37 36 35 35 35 33 31 31 32 35 39 40 43 45 33 25 10 9 8 13 21 22 17 8 4 6 7 9 10
24 26 27 27 26 31 34 37 36 36 32 32 33 33 31 33 31 31 32 32 28 29 30 31 33 34 37 41 38 31 22 13 9 12 18 18 16 12 12 13 13 10 11 16
27 28 31 31 33 31 33 37 33 28 29 30 27 27 28 28 30 30 30 28 25 27 28 28 29 30 34 37 31 28 22 14 13 9 8 8 13 16 13 15 13 8 7 8
Wind_Direction
306 316 329 332 324 310 292 290 279 256 271 309 305 300 287 283 299 312 305 306 300 299 298 297 293 289 289 287 283 280 279 277 276 272 269 268 266 266 265 264 264 264 263 264
312 321 331 324 318 316 316 306 294 293 298 312 303 302 303 304 293 317 317 307 300 296 299 299 295 294 292 290 288 288 286 285 282 279 277 273 269 268 267 266 265 263 262 261
309 319 319 318 317 321 324 322 311 310 303 315 319 331 326 295 293 311 315 308 310 303 305 302 300 298 295 294 294 293 292 290 287 283 279 276 274 271 269 267 265 266 266 264
297 302 303 311 312 318 315 323 323 322 318 318 285 295 294 293 299 299 300 316 326 315 312 312 304 299 296 295 294 295 295 296 292 283 282 282 277 273 272 268 267 266 266 267
296 289 291 302 308 312 311 321 322 325 323 323 321 312 296 288 306 302 299 301 312 311 310 313 306 299 298 299 300 300 296 301 304 304 300 283 276 277 274 272 269 268 266 266
286 287 290 297 302 303 306 313 316 328 329 344 318 277 288 297 299 302 298 306 301 304 309 306 306 300 302 304 303 302 302 301 302 302 302 304 281 274 272 269 270 268 269 270
279 281 284 290 294 295 301 308 327 337 317 291 315 294 288 283 296 287 307 301 303 301 300 304 305 305 303 305 305 304 299 297 296 295 298 301 302 276 267 267 266 267 266 267
283 296 281 284 288 292 296 302 307 310 297 252 271 275 268 283 286 295 297 298 302 305 307 305 303 303 302 301 301 301 298 297 294 293 294 296 297 296 275 265 264 263 264 265
272 255 285 279 282 283 292 286 303 306 302 306 326 293 279 283 292 285 295 292 307 308 310 306 302 300 302 304 305 304 303 298 295 294 292 290 289 289 290 275 265 263 266 267
264 267 276 278 276 278 280 287 288 295 298 306 303 258 280 294 289 292 296 295 299 303 305 305 305 302 303 306 308 309 306 303 298 295 295 290 285 284 283 287 284 272 269 269
264 262 265 276 272 277 275 274 277 286 291 299 304 278 285 290 298 299 301 299 302 310 311 311 310 310 312 313 312 309 306 303 301 299 296 291 286 283 281 281 276 276 266 262
259 263 262 275 271 277 275 275 276 287 296 298 301 309 287 293 304 303 303 309 314 315 314 313 312 314 317 318 318 314 311 308 306 304 301 297 287 280 277 276 270 265 265 262
269 264 260 264 269 275 273 272 271 287 290 294 295 307 297 293 301 309 298 312 318 318 314 315 318 323 323 325 322 320 319 314 310 307 304 301 294 287 282 280 279 271 266 260
264 263 264 261 242 251 271 285 290 290 292 297 299 307 319 301 291 308 299 312 318 318 315 319 323 323 326 330 327 323 320 316 312 309 307 306 299 292 288 282 277 271 265 262
261 262 264 263 255 261 267 275 282 288 295 293 297 296 285 303 285 294 298 311 313 311 314 316 321 323 327 329 328 323 320 318 315 312 307 304 302 296 287 279 277 272 269 267
266 262 263 266 267 266 268 271 279 282 285 290 308 302 291 296 291 303 309 306 304 310 312 316 321 327 328 327 328 325 324 321 315 314 307 298 298 305 293 285 283 280 274 269
259 264 267 270 271 271 273 286 286 289 293 281 264 280 273 285 294 317 307 310 308 307 311 314 320 324 325 327 329 328 327 320 320 313 298 302 298 299 305 294 285 284 275 276
266 269 269 274 270 273 284 274 275 278 276 267 264 272 280 295 308 314 310 317 312 311 313 317 315 319 323 327 329 331 327 329 328 319 317 322 300 300 300 311 306 275 272 267
268 274 279 276 279 285 280 276 270 273 283 239 284 289 292 296 304 310 316 318 314 315 313 315 312 318 323 327 330 332 326 334 334 330 329 332 311 314 26 32 49 29 49 39
272 273 272 275 278 277 276 271 283 290 264 268 275 281 285 292 298 304 310 310 313 310 312 314 313 318 324 327 331 332 332 335 337 335 336 335 339 61 44 113 70 91 71 98
281 279 281 278 277 277 275 276 271 269 264 276 282 285 292 292 299 304 309 310 314 312 316 314 316 320 324 330 332 331 336 338 346 354 16 358 7 94 99 158 76 105 114 83
271 262 268 283 284 267 271 277 280 278 277 278 276 284 288 294 298 301 305 309 312 314 313 316 318 323 327 332 334 334 343 355 4 14 23 34 59 106 106 195 288 51 25 76
254 254 257 245 274 254 266 271 244 266 266 277 279 281 288 292 296 297 307 308 311 319 316 319 322 325 330 335 336 338 343 7 41 29 58 86 48 103 142 183 191 12 51 72
251 253 254 275 276 270 270 267 269 270 267 288 284 284 286 289 291 304 305 309 316 319 320 323 325 329 336 337 339 345 355 24 90 82 92 87 72 92 67 56 52 67 86 102
257 265 269 273 275 267 267 277 281 285 290 281 276 278 283 284 295 303 305 309 321 315 322 326 329 337 340 341 345 349 5 14 55 104 92 77 62 79 64 86 89 96 110 140
253 255 263 274 275 279 277 279 289 290 281 279 277 279 282 290 298 301 303 311 316 319 326 330 334 343 342 347 354 10 14 34 33 37 118 63 82 72 88 99 109 105 129 177
Height
5848 5848 5847 5846 5846 5846 5846 5845 5845 5843 5837 5833 5832 5830 5829 5822 5814 5818 5812 5809 5805 5803 5800 5798 5795 5793 5791 5789 5787 5785 5783 5781 5779 5778 5777 5777 5776 5776 5777 5778 5778 5778 5778 5779
5846 5845 5844 5844 5843 5843 5842 5841 5839 5837 5833 5830 5827 5825 5823 5822 5813 5812 5809 5804 5799 5796 5793 5790 5787 5785 5783 5780 5778 5776 5774 5771 5769 5766 5765 5764 5763 5763 5763 5763 5763 5762 5763 5765
5842 5842 5841 5840 5839 5838 5837 5836 5834 5832 5828 5825 5821 5820 5818 5817 5810 5807 5802 5800 5795 5791 5789 5785 5781 5777 5774 5772 5769 5767 5764 5761 5758 5756 5754 5752 5751 5750 5750 5750 5751 5749 5748 5750
5838 5838 5837 5836 5835 5834 5832 5831 5829 5826 5824 5823 5820 5818 5818 5811 5807 5800 5793 5790 5789 5784 5782 5779 5774 5771 5767 5764 5762 5760 5756 5752 5749 5746 5743 5740 5739 5737 5736 5736 5736 5736 5737 5738
5835 5834 5833 5832 5831 5830 5828 5826 5824 5822 5820 5818 5816 5814 5815 5807 5803 5797 5794 5790 5784 5778 5777 5773 5769 5764 5761 5757 5754 5751 5748 5744 5740 5737 5732 5729 5726 5725 5724 5723 5723 5723 5724 5724
5829 5829 5828 5827 5826 5825 5824 5822 5820 5817 5815 5813 5812 5814 5809 5801 5799 5795 5792 5786 5781 5775 5772 5766 5762 5758 5754 5750 5746 5743 5739 5735 5731 5727 5723 5718 5714 5712 5710 5710 5710 5711 5711 5712
5825 5824 5824 5823 5822 5821 5820 5817 5815 5815 5814 5811 5808 5807 5804 5797 5793 5791 5787 5782 5777 5771 5766 5761 5756 5751 5746 5742 5738 5734 5730 5726 5722 5717 5713 5708 5703 5699 5697 5697 5697 5698 5699 5700
5820 5817 5819 5819 5818 5816 5815 5813 5812 5811 5810 5811 5809 5803 5796 5789 5785 5784 5780 5776 5771 5765 5760 5755 5749 5744 5739 5734 5730 5726 5720 5716 5711 5706 5702 5698 5693 5688 5685 5684 5684 5685 5687 5688
5816 5814 5813 5814 5813 5813 5811 5809 5807 5805 5804 5803 5803 5798 5791 5786 5783 5778 5774 5769 5764 5756 5752 5748 5743 5737 5732 5726 5721 5715 5710 5705 5700 5695 5691 5686 5682 5678 5675 5672 5671 5671 5673 5675
5811 5810 5809 5808 5808 5808 5806 5804 5803 5799 5798 5796 5796 5792 5783 5779 5778 5774 5769 5763 5758 5752 5747 5741 5736 5729 5724 5718 5712 5705 5699 5693 5687 5683 5678 5674 5670 5666 5663 5659 5658 5658 5659 5661
5803 5806 5803 5805 5803 5802 5801 5799 5798 5796 5794 5790 5787 5787 5779 5774 5769 5767 5762 5758 5752 5747 5740 5734 5729 5722 5716 5710 5704 5697 5690 5683 5676 5670 5664 5660 5656 5652 5649 5646 5645 5644 5644 5645
5795 5799 5798 5799 5796 5797 5795 5794 5792 5790 5789 5783 5781 5781 5776 5770 5765 5761 5755 5750 5747 5741 5734 5728 5722 5716 5710 5703 5696 5688 5680 5672 5665 5657 5651 5646 5640 5636 5634 5632 5630 5629 5629 5629
5790 5792 5792 5793 5794 5788 5788 5788 5787 5785 5782 5780 5776 5775 5770 5765 5758 5755 5751 5744 5740 5734 5728 5722 5717 5710 5703 5696 5688 5679 5671 5661 5653 5645 5637 5631 5625 5620 5617 5615 5614 5613 5613 5614
5783 5784 5786 5788 5784 5783 5781 5780 5780 5778 5776 5773 5770 5766 5764 5757 5754 5749 5743 5738 5734 5729 5723 5717 5711 5704 5697 5689 5679 5669 5661 5651 5641 5632 5623 5615 5609 5605 5602 5600 5599 5599 5599 5602
5775 5777 5777 5778 5781 5777 5775 5775 5774 5772 5770 5766 5765 5764 5757 5754 5748 5743 5736 5733 5728 5723 5717 5711 5705 5698 5690 5682 5673 5662 5652 5640 5630 5619 5611 5605 5600 5594 5591 5589 5589 5589 5589 5590
5766 5769 5769 5770 5771 5771 5770 5770 5768 5767 5765 5761 5760 5759 5748 5748 5741 5737 5732 5726 5722 5716 5711 5705 5698 5691 5683 5674 5664 5653 5641 5628 5617 5606 5597 5593 5590 5585 5582 5580 5579 5580 5580 5580
5760 5761 5762 5763 5763 5762 5761 5762 5760 5759 5758 5758 5754 5752 5745 5741 5737 5732 5721 5719 5714 5709 5704 5698 5691 5683 5676 5666 5654 5642 5628 5615 5602 5591 5586 5585 5582 5579 5576 5573 5572 5573 5574 5573
5750 5752 5754 5753 5754 5753 5757 5754 5753 5752 5753 5751 5746 5744 5741 5733 5730 5727 5716 5712 5706 5702 5697 5692 5685 5679 5669 5659 5647 5633 5619 5603 5589 5583 5580 5577 5574 5574 5572 5570 5570 5570 5571 5571
5744 5745 5745 5745 5745 5747 5748 5746 5744 5743 5746 5737 5738 5737 5732 5727 5725 5722 5712 5705 5699 5695 5690 5687 5678 5671 5663 5651 5639 5625 5612 5598 5587 5580 5578 5574 5573 5572 5572 5573 5572 5572 5572 5571
5736 5737 5737 5738 5737 5737 5739 5737 5737 5736 5736 5730 5731 5730 5726 5722 5718 5714 5708 5702 5697 5691 5685 5679 5673 5666 5657 5647 5633 5619 5605 5594 5587 5580 5576 5574 5574 5574 5575 5576 5575 5575 5574 5573
5728 5728 5729 5730 5729 5731 5733 5727 5730 5731 5730 5724 5723 5721 5719 5715 5712 5705 5700 5695 5690 5684 5681 5673 5666 5660 5651 5641 5627 5615 5601 5590 5585 5581 5578 5576 5576 5576 5578 5578 5576 5575 5576 5576
5721 5723 5724 5723 5723 5724 5721 5721 5719 5720 5719 5717 5715 5715 5712 5708 5705 5699 5695 5689 5684 5680 5675 5669 5663 5655 5645 5636 5624 5612 5599 5591 5586 5583 5580 5579 5579 5580 5581 5580 5580 5580 5581 5582
5715 5716 5715 5719 5718 5716 5715 5715 5713 5711 5710 5709 5710 5709 5706 5702 5698 5693 5691 5683 5678 5676 5670 5665 5658 5651 5641 5632 5621 5609 5598 5592 5589 5586 5583 5582 5581 5582 5583 5583 5584 5584 5586 5587
5705 5707 5708 5709 5709 5708 5706 5706 5704 5703 5704 5705 5701 5701 5699 5695 5691 5689 5684 5679 5676 5671 5666 5662 5656 5647 5638 5630 5619 5608 5598 5592 5591 5590 5587 5586 5586 5585 5586 5587 5588 5588 5589 5591
5699 5698 5700 5701 5703 5701 5698 5695 5696 5696 5696 5695 5696 5694 5692 5688 5687 5683 5679 5675 5673 5666 5663 5659 5652 5645 5637 5628 5618 5608 5601 5597 5593 5592 5591 5589 5589 5588 5590 5591 5591 5592 5593 5596
5692 5692 5691 5692 5690 5692 5690 5688 5689 5689 5688 5687 5688 5686 5684 5683 5681 5677 5674 5672 5668 5662 5660 5655 5649 5643 5636 5629 5619 5610 5604 5600 5597 5595 5594 5593 5595 5593 5594 5596 5596 5597 5599 5602